Flight Track Log - Related Links

Times and Time Zones

All times are in EDT time to prevent confusion due to time zone crossing. See the UPS1477 flight status page for this flight to view local times or setup timezone preferences in your user account.


Time Position Orientation Groundspeed Altitude Reporting Facility
EDT Latitude Longitude Course Direction KTS MPH feet Rate Location/Type
Wed 10:16:58 PM 42.6440 -84.6220 123° Southeast 361 415 11,400  Level FlightAware ADS-B
Wed 10:17:38 PM 42.6040 -84.5420 124° Southeast 414 476 12,800 1,835 Climbing FlightAware ADS-B
Wed 10:18:23 PM 42.5520 -84.4400 125° Southeast 428 493 14,000 918 Climbing FlightAware ADS-B
Wed 10:19:03 PM 42.5080 -84.3530 124° Southeast 425 489 14,100 1,425 Climbing FlightAware ADS-B
Wed 10:19:43 PM 42.4500 -84.2810 138° Southeast 419 482 15,900 2,965 Climbing FlightAware ADS-B
Wed 10:20:28 PM 42.3760 -84.2220 149° Southeast 442 509 18,300 3,240 Climbing FlightAware ADS-B
Wed 10:21:23 PM 42.2760 -84.1460 151° Southeast 455 524 21,300 2,760 Climbing FlightAware ADS-B
Wed 10:22:08 PM 42.1900 -84.0810 151° Southeast 478 550 22,900 1,500 Climbing FlightAware ADS-B
Wed 10:23:03 PM 42.0820 -83.9990 151° Southeast 469 540 23,800 1,333 Climbing FlightAware ADS-B
Wed 10:23:38 PM 42.0230 -83.9540 150° Southeast 454 522 24,900 900 Climbing FlightAware ADS-B
Wed 10:24:23 PM 41.9360 -83.8890 151° Southeast 446 513 25,000 67 Climbing FlightAware ADS-B
Wed 10:25:08 PM 41.8600 -83.8320 151° Southeast 449 517 25,000  Level FlightAware ADS-B
Wed 10:25:53 PM 41.7750 -83.7680 151° Southeast 453 521 25,000  Level FlightAware ADS-B
Wed 10:26:43 PM 41.6850 -83.7000 151° Southeast 456 525 25,000  Level FlightAware ADS-B
Wed 10:26:58 PM 41.7340 -83.7370 331° Northwest 25,000  Level FlightAware ADS-B
Wed 10:27:28 PM 41.6020 -83.6390 151° Southeast 457 526 25,000  Level FlightAware ADS-B
Wed 10:28:13 PM 41.5140 -83.5740 151° Southeast 457 526 25,000  Level FlightAware ADS-B
Wed 10:28:53 PM 41.4400 -83.5190 151° Southeast 456 525 25,000  Level FlightAware ADS-B
Wed 10:29:33 PM 41.3670 -83.4660 151° Southeast 455 524 25,000  Level FlightAware ADS-B
Wed 10:30:18 PM 41.2860 -83.4050 150° Southeast 451 519 25,000  Level FlightAware ADS-B
Wed 10:30:58 PM 41.2100 -83.3500 151° Southeast 450 518 25,000 -150 Level FlightAware ADS-B
Wed 10:31:38 PM 41.1400 -83.2990 151° Southeast 448 516 24,800 -1,341 Descending FlightAware ADS-B
Wed 10:32:23 PM 41.0590 -83.2400 151° Southeast 444 511 23,100 -2,188 Descending FlightAware ADS-B
Wed 10:33:03 PM 40.9860 -83.1860 151° Southeast 438 504 21,700 -1,875 Descending FlightAware ADS-B
Wed 10:33:43 PM 40.9230 -83.1410 152° Southeast 432 497 20,600 -1,725 Descending FlightAware ADS-B
Wed 10:34:23 PM 40.8490 -83.0870 151° Southeast 419 482 19,400 -1,800 Descending FlightAware ADS-B
Wed 10:35:13 PM 40.7630 -83.0250 151° Southeast 411 473 17,900 -1,733 Descending FlightAware ADS-B
Wed 10:35:53 PM 40.6960 -82.9770 151° Southeast 402 463 16,800 -1,725 Descending FlightAware ADS-B
Wed 10:36:33 PM 40.6300 -82.9340 154° Southeast 394 453 15,600 -1,624 Descending FlightAware ADS-B
Wed 10:37:18 PM 40.5560 -82.8970 159° South 382 440 14,500 -1,482 Descending FlightAware ADS-B
Wed 10:37:58 PM 40.4920 -82.8670 160° South 368 423 13,500 -1,694 Descending FlightAware ADS-B
Wed 10:38:43 PM 40.4190 -82.8350 162° South 359 413 12,100 -1,341 Descending FlightAware ADS-B
Wed 10:39:23 PM 40.3630 -82.8100 161° South 360 414 11,600 -375 Descending FlightAware ADS-B
Wed 10:40:03 PM 40.3090 -82.7850 161° South 360 414 11,600  Level FlightAware ADS-B
Wed 10:40:43 PM 40.2550 -82.7610 161° South 360 414 11,600 -1,186 Level FlightAware ADS-B
Wed 10:41:29 PM 40.1844 -82.7331 161° South 317 365 9,900 -1,920 Descending Indianapolis Center
Wed 10:41:58 PM 40.1319 -82.7286 176° South 287 330 9,200 -1,672 Descending Indianapolis Center
Wed 10:42:30 PM 40.1042 -82.7267 177° South 289 333 8,200 -2,459 Descending Indianapolis Center
Wed 10:42:59 PM 40.0525 -82.7253 179° South 282 325 6,700 -2,361 Descending Indianapolis Center
Wed 10:43:31 PM 40.0250 -82.7228 176° South 281 323 5,800 -2,361 Descending Indianapolis Center
Wed 10:44:00 PM 39.9756 -82.7167 175° South 273 314 4,300 -2,419 Descending Indianapolis Center
Wed 10:44:33 PM 39.9397 -82.7258 191° South 268 308 3,300 -1,300 Descending Indianapolis Center
Wed 10:45:00 PM 39.9247 -82.7572 238° Southwest 193 222 3,000 -295 Descending Indianapolis Center
Wed 10:45:34 PM 39.9119 -82.7875 241° Southwest 213 245 3,000 -442 Level Indianapolis Center
Wed 10:46:35 PM 39.8869 -82.8303 233° Southwest 170 196 2,300 -614 Descending Indianapolis Center
Wed 10:47:02 PM 39.8750 -82.8467 226° Southwest 125 144 2,100 -590 Descending Indianapolis Center
Wed 10:47:36 PM 39.8625 -82.8608 221° Southwest 141 162 1,700 -590 Descending Indianapolis Center
Wed 10:48:03 PM 39.8522 -82.8742 225° Southwest 109 125 1,500 -492 Descending Indianapolis Center
Wed 10:48:37 PM 39.8408 -82.8894 226° Southwest 121 139 1,200 -529 Descending Indianapolis Center

Login

Don't have an account? Register now (free) for customized features, flight alerts, and more!